This demonstration page uses our WeatherBlox Daily Observations layout. Learn more.

Left ArrowRight Arrow

38.83388, -104.82136

Hourly Observations for January 9, 2015

Temp ( °F °C ) Dew Point ( °F °C ) Humidity (%) Winds ( mph kmh ) Pressure ( in mb ) Visibility ( mi km ) Precip ( " mm )
12:16 am 00:16 Mostly Cloudy with Light Freezing Rain 21 -6 19 -7 93 93 ESE 7 11 30.50 1033 3 5 N/A
12:46 am 00:46 Mostly Cloudy 19 -7 19 -7 100 100 SE 7 11 30.53 1034 1 2 N/A
12:47 am 00:47 Mostly Cloudy with Light Freezing Rain 19 -7 19 -7 100 100 SE 6 9 30.53 1034 1 2 N/A
12:49 am 00:49 Mostly Cloudy with Light Freezing Rain 19 -7 19 -7 100 100 SE 5 7 30.53 1034 1 2 N/A
12:53 am 00:53 Mostly Cloudy 19 -7 19 -7 100 100 ESE 5 7 30.53 1034 1 2 N/A
1:09 am 01:09 Mostly Cloudy with Light Freezing Rain 19 -7 19 -7 100 100 SE 6 9 30.53 1034 1 2 N/A
1:17 am 01:17 Mostly Cloudy with Light Snow 19 -7 18 -8 93 93 SE 6 9 30.53 1034 1 2 N/A
1:22 am 01:22 Mostly Cloudy 19 -7 19 -7 100 100 SE 7 11 30.53 1034 1 2 N/A
1:23 am 01:23 Mostly Cloudy with Light Freezing Rain 19 -7 19 -7 100 100 SE 7 11 30.53 1034 1 2 N/A
1:28 am 01:28 Mostly Cloudy with Light Freezing Rain 19 -7 18 -8 93 93 SSE 6 9 30.53 1034 1 2 N/A
1:53 am 01:53 Mostly Cloudy with Light Freezing Rain 19 -7 19 -7 100 100 ESE 8 13 30.53 1034 1 2 N/A
1:56 am 01:56 Mostly Cloudy with Light Freezing Rain 19 -7.2 19 -7.5 98 98 ESE 8 13 30.39 1029 1 2 N/A
2:30 am 02:30 Mostly Cloudy with Light Freezing Rain 19 -7 18 -8 93 93 SE 9 15 30.53 1034 1 2 N/A
2:31 am 02:31 Mostly Cloudy 19 -7 18 -8 93 93 SE 8 13 30.53 1034 1 2 N/A
2:56 am 02:56 Mostly Cloudy with Light Freezing Rain 18 -7.7 17 -8.1 97 97 SE 12 19 30.36 1028 1 2 N/A
3:02 am 03:02 Mostly Cloudy with Light Freezing Rain 18 -8 18 -8 100 100 SE 14 22 30.53 1034 1 2 N/A
3:14 am 03:14 Mostly Cloudy 18 -8 18 -8 100 100 SE 13 20 30.53 1034 1 2 N/A
3:39 am 03:39 Mostly Cloudy with Light Freezing Rain 18 -8 16 -9 93 93 E 68 109 30.53 1034 1 2 N/A
3:48 am 03:48 Mostly Cloudy with Light Freezing Rain 16 -9 16 -9 100 100 ENE 165 265 30.56 1035 1 2 N/A
3:52 am 03:52 Mostly Cloudy with Light Freezing Rain 16 -9 16 -9 100 100 NW 102 165 30.56 1035 1 2 N/A
3:54 am 03:54 Mostly Cloudy with Light Freezing Rain 16 -9 16 -9 100 100 N 125 202 30.56 1035 1 2 N/A
3:56 am 03:56 Mostly Cloudy with Light Freezing Rain 16 -8.7 15 -9.2 96 96 NE 151 243 30.37 1029 1 2 N/A
3:58 am 03:58 Mostly Cloudy with Light Freezing Rain 16 -9 16 -9 100 100 ENE 68 109 30.56 1035 1 2 N/A
4:00 am 04:00 Mostly Cloudy with Light Freezing Rain 16 -9 16 -9 100 100 ENE 64 104 30.56 1035 1 2 N/A
4:02 am 04:02 Mostly Cloudy with Light Freezing Rain 16 -9 16 -9 100 100 NE 55 89 30.56 1035 1 2 N/A
4:06 am 04:06 Mostly Cloudy with Light Freezing Rain 16 -9 16 -9 100 100 NE 112 180 30.56 1035 1 2 N/A
4:08 am 04:08 Mostly Cloudy with Light Freezing Rain 16 -9 16 -9 100 100 NE 67 107 30.56 1035 1 2 N/A
4:18 am 04:18 Mostly Cloudy with Light Freezing Rain 16 -9 16 -9 100 100 NE 64 104 30.53 1034 1 2 N/A
4:19 am 04:19 Mostly Cloudy with Light Freezing Rain 16 -9 16 -9 100 100 ENE 69 111 30.53 1034 1 2 N/A
4:42 am 04:42 Mostly Cloudy with Light Freezing Rain 18 -8 18 -8 100 100 ESE 13 20 30.50 1033 3 5 N/A
4:44 am 04:44 Mostly Cloudy with Light Freezing Rain 18 -8 16 -9 93 93 E 40 65 30.50 1033 3 5 N/A
4:45 am 04:45 Mostly Cloudy with Light Freezing Rain 18 -8 16 -9 93 93 E 49 80 30.50 1033 3 5 N/A
4:54 am 04:54 Mostly Cloudy with Light Freezing Rain 18 -8 16 -9 93 93 ESE 32 52 30.50 1033 3 5 N/A
4:56 am 04:56 Mostly Cloudy with Light Freezing Rain 17 -8.2 17 -8.6 97 97 ESE 33 54 30.33 1027 3 5 N/A
5:07 am 05:07 Mostly Cloudy with Light Freezing Drizzle 18 -8 16 -9 93 93 E 13 20 30.50 1033 3 5 N/A
5:19 am 05:19 Mostly Cloudy with Light Freezing Drizzle 18 -8 16 -9 93 93 NE 91 146 30.50 1033 3 5 N/A
5:20 am 05:20 Mostly Cloudy with Light Freezing Drizzle 18 -8 16 -9 93 93 ESE 35 56 30.50 1033 3 5 N/A
5:28 am 05:28 Mostly Cloudy 18 -8 16 -9 93 93 ESE 17 28 30.50 1033 3 5 N/A
5:30 am 05:30 Mostly Cloudy 18 -8 16 -9 93 93 ESE 15 24 30.50 1033 3 5 N/A
5:32 am 05:32 Mostly Cloudy 18 -8 16 -9 93 93 SE 14 22 30.50 1033 3 5 N/A
5:33 am 05:33 Mostly Cloudy with Light Freezing Drizzle 18 -8 16 -9 93 93 SE 13 20 30.50 1033 3 5 N/A
5:36 am 05:36 Mostly Cloudy with Light Freezing Drizzle 18 -8 16 -9 93 93 SSE 26 43 30.50 1033 3 5 N/A
5:38 am 05:38 Mostly Cloudy with Light Freezing Drizzle 18 -8 16 -9 93 93 E 77 124 30.50 1033 3 5 N/A
5:42 am 05:42 Mostly Cloudy with Light Freezing Rain 18 -8 16 -9 93 93 SE 28 44 30.50 1033 1 2 N/A
5:44 am 05:44 Mostly Cloudy with Light Freezing Rain 18 -8 16 -9 93 93 ESE 14 22 30.50 1033 3 5 N/A
5:50 am 05:50 Mostly Cloudy with Light Freezing Rain 18 -8 16 -9 93 93 SE 21 33 30.50 1033 3 5 N/A
5:56 am 05:56 Mostly Cloudy with Light Freezing Rain 17 -8.5 16 -9 96 96 ESE 35 56 30.33 1027 1 2 N/A
6:02 am 06:02 Mostly Cloudy with Light Freezing Rain 18 -8 16 -9 93 93 E 184 296 30.50 1033 1 2 N/A
6:04 am 06:04 Mostly Cloudy with Light Freezing Rain 18 -8 16 -9 93 93 E 166 267 30.50 1033 1 2 N/A
6:07 am 06:07 Mostly Cloudy with Light Freezing Rain 18 -8 16 -9 93 93 E 41 67 30.50 1033 1 2 N/A
6:14 am 06:14 Mostly Cloudy with Light Freezing Rain 16 -9 16 -9 100 100 N 101 163 30.53 1034 1 2 N/A
6:15 am 06:15 Mostly Cloudy with Light Freezing Rain 16 -9 16 -9 100 100 NE 87 141 30.53 1034 1 2 N/A
6:17 am 06:17 Mostly Cloudy with Light Freezing Rain 16 -9 16 -9 100 100 N 102 165 30.53 1034 1 2 N/A
6:20 am 06:20 Mostly Cloudy with Light Freezing Rain 16 -9 16 -9 100 100 ENE 113 181 30.53 1034 1 2 N/A
6:22 am 06:22 Mostly Cloudy with Light Freezing Rain 16 -9 16 -9 100 100 ENE 28 44 30.53 1034 1 2 N/A
6:26 am 06:26 Mostly Cloudy with Light Freezing Rain 16 -9 16 -9 100 100 SSE 35 56 30.53 1034 1 2 N/A
6:29 am 06:29 Mostly Cloudy with Light Freezing Rain 16 -9 16 -9 100 100 SSE 70 113 30.53 1034 1 2 N/A
6:30 am 06:30 Mostly Cloudy with Light Freezing Rain 16 -9 16 -9 100 100 S 39 63 30.53 1034 3 5 N/A
6:32 am 06:32 Mostly Cloudy with Light Freezing Rain 16 -9 16 -9 100 100 NE 110 178 30.53 1034 3 5 N/A
6:34 am 06:34 Mostly Cloudy with Light Freezing Rain 18 -8 16 -9 93 93 NE 124 200 30.50 1033 3 5 N/A
6:36 am 06:36 Mostly Cloudy with Light Freezing Rain 18 -8 16 -9 93 93 SSE 128 206 30.50 1033 3 5 N/A
6:37 am 06:37 Mostly Cloudy with Light Freezing Rain 18 -8 16 -9 93 93 SSE 146 235 30.50 1033 3 5 N/A
6:45 am 06:45 Mostly Cloudy with Light Freezing Rain 18 -8 16 -9 93 93 undefined N/A 30.50 1033 3 5 N/A
6:56 am 06:56 Mostly Cloudy with Light Freezing Rain 17 -8.4 16 -8.8 97 97 undefined N/A 30.36 1028 0 0 N/A
7:01 am 07:01 Mostly Cloudy with Light Freezing Rain 18 -8 16 -9 93 93 N 29 46 30.50 1033 0 0 N/A
7:08 am 07:08 Mostly Cloudy with Light Freezing Rain 18 -8 16 -9 93 93 undefined N/A 30.50 1033 0 0 N/A
7:12 am 07:12 Mostly Cloudy with Light Freezing Rain 18 -8 16 -9 93 93 NNE 79 128 30.50 1033 5 8 N/A
7:14 am 07:14 Mostly Cloudy with Light Freezing Rain 18 -8 16 -9 93 93 NNE 99 159 30.50 1033 5 8 N/A
7:15 am 07:15 Mostly Cloudy with Light Freezing Rain 18 -8 16 -9 93 93 N 97 156 30.50 1033 0 0 N/A
7:47 am 07:47 Mostly Cloudy with Light Freezing Rain 16 -9 16 -9 100 100 NNE 22 35 30.53 1034 0 0 N/A
7:51 am 07:51 Mostly Cloudy with Light Freezing Rain 16 -9 14 -10 93 93 E 60 96 30.53 1034 0 0 N/A
7:54 am 07:54 Mostly Cloudy with Light Freezing Rain 16 -9 14 -10 93 93 NE 82 131 30.53 1034 0 0 N/A
7:56 am 07:56 Mostly Cloudy with Light Freezing Rain 16 -9.1 15 -9.7 95 95 undefined N/A 30.41 1030 0 0 N/A
7:57 am 07:57 Mostly Cloudy 16 -9 14 -10 93 93 undefined N/A 30.53 1034 5 8 N/A
8:01 am 08:01 Mostly Cloudy with Light Freezing Rain 16 -9 14 -10 93 93 undefined N/A 30.53 1034 5 8 N/A
8:33 am 08:33 Mostly Cloudy 16 -9 14 -10 93 93 undefined N/A 30.56 1035 0 0 N/A
8:34 am 08:34 Mostly Cloudy with Light Freezing Rain 16 -9 14 -10 93 93 undefined N/A 30.56 1035 0 0 N/A
9:18 am 09:18 Mostly Cloudy with Light Freezing Rain 16 -9 14 -10 93 93 SSE 123 198 30.56 1035 3 5 N/A
9:20 am 09:20 Mostly Cloudy with Light Freezing Rain 16 -9 14 -10 93 93 E 125 202 30.56 1035 3 5 N/A
9:28 am 09:28 Mostly Cloudy with Light Freezing Rain 16 -9 14 -10 93 93 NE 35 56 30.56 1035 1 2 N/A
9:34 am 09:34 Mostly Cloudy with Light Freezing Rain 16 -9 14 -10 93 93 undefined N/A 30.56 1035 3 5 N/A
9:45 am 09:45 Mostly Cloudy with Light Freezing Rain 16 -9 14 -10 93 93 undefined N/A 30.56 1035 1 2 N/A
9:56 am 09:56 Mostly Cloudy with Light Freezing Rain 15 -9.2 14 -9.9 95 95 undefined N/A 30.47 1032 3 5 N/A
10:05 am 10:05 Mostly Cloudy with Light Freezing Rain 16 -9 14 -10 93 93 N 75 120 30.56 1035 1 2 N/A
10:08 am 10:08 Mostly Cloudy with Light Freezing Rain 16 -9 14 -10 93 93 NE 69 111 30.56 1035 1 2 N/A
10:19 am 10:19 Mostly Cloudy with Light Freezing Rain 16 -9 14 -10 93 93 E 59 94 30.56 1035 1 2 N/A
10:23 am 10:23 Mostly Cloudy 16 -9 16 -9 100 100 undefined N/A 30.56 1035 1 2 N/A
10:26 am 10:26 Mostly Cloudy with Light Freezing Rain 16 -9 16 -9 100 100 SE 52 83 30.56 1035 3 5 N/A
10:44 am 10:44 Mostly Cloudy with Light Freezing Rain 16 -9 16 -9 100 100 undefined N/A 30.56 1035 1 2 N/A
10:56 am 10:56 Mostly Cloudy with Light Freezing Rain 16 -8.8 15 -9.4 95 95 undefined N/A 30.45 1031 1 2 N/A
11:02 am 11:02 Mostly Cloudy with Light Freezing Rain 16 -9 16 -9 100 100 S 67 107 30.56 1035 1 2 N/A
11:03 am 11:03 Mostly Cloudy with Light Freezing Rain 16 -9 16 -9 100 100 S 99 159 30.56 1035 1 2 N/A
11:06 am 11:06 Mostly Cloudy with Light Freezing Rain 16 -9 16 -9 100 100 NNE 96 154 30.56 1035 1 2 N/A
11:10 am 11:10 Mostly Cloudy with Light Freezing Rain 16 -9 16 -9 100 100 SW 92 148 30.56 1035 1 2 N/A
11:12 am 11:12 Mostly Cloudy with Light Freezing Rain 16 -9 16 -9 100 100 N 124 200 30.53 1034 1 2 N/A
11:13 am 11:13 Mostly Cloudy with Light Freezing Rain 16 -9 16 -9 100 100 NNE 140 226 30.53 1034 1 2 N/A
11:15 am 11:15 Mostly Cloudy with Light Freezing Rain 16 -9 16 -9 100 100 SSW 114 183 30.53 1034 1 2 N/A
11:18 am 11:18 Mostly Cloudy with Light Freezing Rain 16 -9 16 -9 100 100 NW 82 131 30.53 1034 1 2 N/A
11:24 am 11:24 Mostly Cloudy with Light Freezing Rain 16 -9 16 -9 100 100 E 30 48 30.53 1034 1 2 N/A
11:26 am 11:26 Mostly Cloudy with Light Freezing Rain 16 -9 16 -9 100 100 S 142 228 30.53 1034 1 2 N/A

Powered by AerisWeather